Miscellaneous Local Product
Issued by NWS Hastings, NE

Home | Current Version | Previous Version | Text Only | Print | Product List | Glossary On
Versions: 1 2 3 4 5 6 7 8 9 10 11 12 13 14 15 16 17 18 19 20 21 22 23 24 25 26 27 28 29 30 31 32 33 34 35 36 37 38 39 40 41 42 43 44 45 46 47 48 49 50
072
AXUS43 KGID 291102
MISGRI

GID CWA HOURLY WEATHER ROUNDUP
NATIONAL WEATHER SERVICE HASTINGS NE
600 AM CDT THU JUN 29 2017

NOTE: "FAIR" INDICATES FEW OR NO CLOUDS BELOW 12,000 FEET WITH NO
SIGNIFICANT WEATHER AND/OR OBSTRUCTIONS TO VISIBILITY.

...SOUTH CENTRAL NEBRASKA...

CITY           SKY/WX    TMP DP  RH WIND       PRES   REMARKS
GRAND ISLAND   CLOUDY    68  65  90 SW7       29.81R
HASTINGS       LGT RAIN  67  63  87 E6        29.85R
KEARNEY        CLOUDY    70  55  60 NW10G23   29.83F
ORD            CLOUDY    63  56  78 SE8       29.78F
YORK           CLOUDY    64  61  88 W7        29.80R
AURORA         CLOUDY    64  63  95 SW8       29.83R
LEXINGTON      MOCLDY    68  56  65 NE12      29.82F
HOLDREGE       CLOUDY    67  61  80 CALM      29.85F
HEBRON         CLOUDY    65  61  86 CALM      29.76R

...NEBRASKA PANHANDLE...

CITY           SKY/WX    TMP DP  RH WIND       PRES   REMARKS
CHADRON        CLEAR     52  48  86 NW5       29.83R
ALLIANCE       CLEAR     51  49  92 SW7       29.82R
SCOTTSBLUFF    CLEAR     57  47  69 NW7       29.86R
SIDNEY         CLEAR     54  50  86 W8        29.86R

...WESTERN AND NORTH CENTRAL NEBRASKA...

CITY           SKY/WX    TMP DP  RH WIND       PRES   REMARKS
VALENTINE      CLOUDY    62  52  69 S5        29.76R
AINSWORTH      MOCLDY    61  55  78 SE5       29.77R
ONEILL         CLOUDY    62  56  79 SE6       29.77F
BROKEN BOW     CLOUDY    70  54  56 E10G26    29.72F
IMPERIAL       CLOUDY    60  53  77 SE7       29.81R
NORTH PLATTE   CLOUDY    63  58  83 SE9       29.75R
MCCOOK         CLOUDY    66  57  72 E13       29.79F

...EASTERN NEBRASKA...

CITY           SKY/WX    TMP DP  RH WIND       PRES   REMARKS
NORFOLK        CLOUDY    67  59  75 S3        29.76R
SO SIOUX CITY  CLOUDY    67  63  87 E6        29.73F
TEKAMAH        PTCLDY    65  62  90 SW5       29.73R
ALBION         CLOUDY    68  63  82 N5        29.79S
OMAHA EPPLEY   CLOUDY    73  68  84 S7        29.76R
OFFUTT AFB     MOCLDY    71  69  90 SE8       29.75R
MILLARD        CLOUDY    74  71  88 SE5       29.76R
LINCOLN        MOCLDY    71  64  78 W7        29.77R
NEBRASKA CITY  CLOUDY    71  67  88 S12G17    29.75R
BEATRICE       CLOUDY    67  64  89 N6        29.74S
FALLS CITY     TSTM      69  66  90 SE14      29.81F

...NORTHERN KANSAS...

CITY           SKY/WX    TMP DP  RH WIND       PRES   REMARKS
GOODLAND       PTCLDY    62  57  83 N12G23    29.83R
HILL CITY      CLOUDY    66  61  84 NW28G36   29.72F
NORTON         RAIN      64  57  77 N10       29.82F
PHILLIPSBURG   TSTM      66  66 100 W6        29.86F
SMITH CENTER   CLOUDY    63  61  94 N3        29.90R
HAYS           CLOUDY    73  67  81 NE15      29.77F
RUSSELL        LGT RAIN  67  61  81 NE14      29.80R
CONCORDIA      TSTM      63  61  93 SE20      29.76S
SALINA         LGT RAIN  68  62  81 E18G29    29.81F
TOPEKA         TSTM      66  66 100 NW16G38   29.90R VSB 1/2



USA.gov is the U.S. government's official web portal to all federal, state and local government web resources and services.